<?xml version="1.0" encoding="utf-8"?>
<gpx xmlns:xsi="http://www.w3.org/2001/XMLSchema-instance" xmlns:xsd="http://www.w3.org/2001/XMLSchema" version="1.1" creator="Shapelink.com" xmlns="http://www.topografix.com/GPX/1/1" xmlns:gpxtpx="http://www.garmin.com/xmlschemas/TrackPointExtension/v1">
  <metadata>
    <name>Löpning 3.11 km, 2018-08-06</name>
    <desc></desc>
    <author><name>Veronica Dahlgren</name></author> 
    <time>1970-01-01T01:00:00Z</time>
  </metadata>
  <trk>
    <name>Löpning 3.11 km, 2018-08-06</name>
    <trkseg>
      <trkpt lat="59.000007" lon="16.006559">
        <ele>65.4286</ele>
        <time>1970-01-01T01:00:00Z</time>
      </trkpt>
      <trkpt lat="58.99992" lon="16.006506">
        <ele>65.75</ele>
        <time>1970-01-01T01:00:00Z</time>
      </trkpt>
      <trkpt lat="58.999841" lon="16.006426">
        <ele>66.2222</ele>
        <time>1970-01-01T01:00:00Z</time>
      </trkpt>
      <trkpt lat="58.999773" lon="16.006333">
        <ele>66.6</ele>
        <time>1970-01-01T01:00:00Z</time>
      </trkpt>
      <trkpt lat="58.999701" lon="16.006259">
        <ele>66.9091</ele>
        <time>1970-01-01T01:00:00Z</time>
      </trkpt>
      <trkpt lat="58.999641" lon="16.006153">
        <ele>67.3636</ele>
        <time>1970-01-01T01:00:00Z</time>
      </trkpt>
      <trkpt lat="58.999572" lon="16.00605">
        <ele>67.8182</ele>
        <time>1970-01-01T01:00:00Z</time>
      </trkpt>
      <trkpt lat="58.999504" lon="16.005935">
        <ele>68.2727</ele>
        <time>1970-01-01T01:00:00Z</time>
      </trkpt>
      <trkpt lat="58.999501" lon="16.005759">
        <ele>68.8182</ele>
        <time>1970-01-01T01:00:00Z</time>
      </trkpt>
      <trkpt lat="58.999539" lon="16.00559">
        <ele>69.2727</ele>
        <time>1970-01-01T01:00:00Z</time>
      </trkpt>
      <trkpt lat="58.999582" lon="16.005434">
        <ele>69.7273</ele>
        <time>1970-01-01T01:00:00Z</time>
      </trkpt>
      <trkpt lat="58.999592" lon="16.005265">
        <ele>70.0909</ele>
        <time>1970-01-01T01:00:00Z</time>
      </trkpt>
      <trkpt lat="58.99961" lon="16.005084">
        <ele>70.2727</ele>
        <time>1970-01-01T01:00:00Z</time>
      </trkpt>
      <trkpt lat="58.99965" lon="16.004927">
        <ele>70.2727</ele>
        <time>1970-01-01T01:00:00Z</time>
      </trkpt>
      <trkpt lat="58.999709" lon="16.004801">
        <ele>70.2727</ele>
        <time>1970-01-01T01:00:00Z</time>
      </trkpt>
      <trkpt lat="58.999757" lon="16.004673">
        <ele>70.2727</ele>
        <time>1970-01-01T01:00:00Z</time>
      </trkpt>
      <trkpt lat="58.999823" lon="16.00455">
        <ele>70.4545</ele>
        <time>1970-01-01T01:00:00Z</time>
      </trkpt>
      <trkpt lat="58.999889" lon="16.004422">
        <ele>70.5455</ele>
        <time>1970-01-01T01:00:00Z</time>
      </trkpt>
      <trkpt lat="58.999921" lon="16.004252">
        <ele>70.6364</ele>
        <time>1970-01-01T01:00:00Z</time>
      </trkpt>
      <trkpt lat="58.999944" lon="16.004093">
        <ele>70.7273</ele>
        <time>1970-01-01T01:00:00Z</time>
      </trkpt>
      <trkpt lat="58.999952" lon="16.003918">
        <ele>70.8182</ele>
        <time>1970-01-01T01:00:00Z</time>
      </trkpt>
      <trkpt lat="58.999892" lon="16.003783">
        <ele>70.9091</ele>
        <time>1970-01-01T01:00:00Z</time>
      </trkpt>
      <trkpt lat="58.999843" lon="16.003633">
        <ele>71</ele>
        <time>1970-01-01T01:00:00Z</time>
      </trkpt>
      <trkpt lat="58.999795" lon="16.003495">
        <ele>71.2727</ele>
        <time>1970-01-01T01:00:00Z</time>
      </trkpt>
      <trkpt lat="58.999724" lon="16.003416">
        <ele>71.5455</ele>
        <time>1970-01-01T01:00:00Z</time>
      </trkpt>
      <trkpt lat="58.999681" lon="16.003242">
        <ele>71.8182</ele>
        <time>1970-01-01T01:00:00Z</time>
      </trkpt>
      <trkpt lat="58.999647" lon="16.003065">
        <ele>72.0909</ele>
        <time>1970-01-01T01:00:00Z</time>
      </trkpt>
      <trkpt lat="58.999597" lon="16.002903">
        <ele>72.2727</ele>
        <time>1970-01-01T01:00:00Z</time>
      </trkpt>
      <trkpt lat="58.999548" lon="16.002773">
        <ele>72.5455</ele>
        <time>1970-01-01T01:00:00Z</time>
      </trkpt>
      <trkpt lat="58.999502" lon="16.002618">
        <ele>72.8182</ele>
        <time>1970-01-01T01:00:00Z</time>
      </trkpt>
      <trkpt lat="58.999461" lon="16.002454">
        <ele>73</ele>
        <time>1970-01-01T01:00:00Z</time>
      </trkpt>
      <trkpt lat="58.999435" lon="16.002303">
        <ele>73.1818</ele>
        <time>1970-01-01T01:00:00Z</time>
      </trkpt>
      <trkpt lat="58.999392" lon="16.002163">
        <ele>73.4545</ele>
        <time>1970-01-01T01:00:00Z</time>
      </trkpt>
      <trkpt lat="58.999321" lon="16.002048">
        <ele>73.7273</ele>
        <time>1970-01-01T01:00:00Z</time>
      </trkpt>
      <trkpt lat="58.999266" lon="16.001909">
        <ele>73.9091</ele>
        <time>1970-01-01T01:00:00Z</time>
      </trkpt>
      <trkpt lat="58.999202" lon="16.00176">
        <ele>74.0909</ele>
        <time>1970-01-01T01:00:00Z</time>
      </trkpt>
      <trkpt lat="58.999066" lon="16.001535">
        <ele>74.2727</ele>
        <time>1970-01-01T01:00:00Z</time>
      </trkpt>
      <trkpt lat="58.999017" lon="16.001402">
        <ele>74.4545</ele>
        <time>1970-01-01T01:00:00Z</time>
      </trkpt>
      <trkpt lat="58.998937" lon="16.001307">
        <ele>74.6364</ele>
        <time>1970-01-01T01:00:00Z</time>
      </trkpt>
      <trkpt lat="58.998876" lon="16.001191">
        <ele>74.7273</ele>
        <time>1970-01-01T01:00:00Z</time>
      </trkpt>
      <trkpt lat="58.998812" lon="16.001054">
        <ele>74.9091</ele>
        <time>1970-01-01T01:00:00Z</time>
      </trkpt>
      <trkpt lat="58.998749" lon="16.000941">
        <ele>75.0909</ele>
        <time>1970-01-01T01:00:00Z</time>
      </trkpt>
      <trkpt lat="58.998678" lon="16.000839">
        <ele>75.3636</ele>
        <time>1970-01-01T01:00:00Z</time>
      </trkpt>
      <trkpt lat="58.998591" lon="16.000782">
        <ele>75.5455</ele>
        <time>1970-01-01T01:00:00Z</time>
      </trkpt>
      <trkpt lat="58.998512" lon="16.000697">
        <ele>75.8182</ele>
        <time>1970-01-01T01:00:00Z</time>
      </trkpt>
      <trkpt lat="58.99842" lon="16.000671">
        <ele>76.1818</ele>
        <time>1970-01-01T01:00:00Z</time>
      </trkpt>
      <trkpt lat="58.998337" lon="16.000609">
        <ele>76.5455</ele>
        <time>1970-01-01T01:00:00Z</time>
      </trkpt>
      <trkpt lat="58.998258" lon="16.000502">
        <ele>77</ele>
        <time>1970-01-01T01:00:00Z</time>
      </trkpt>
      <trkpt lat="58.998184" lon="16.000423">
        <ele>77.4545</ele>
        <time>1970-01-01T01:00:00Z</time>
      </trkpt>
      <trkpt lat="58.998102" lon="16.000327">
        <ele>77.9091</ele>
        <time>1970-01-01T01:00:00Z</time>
      </trkpt>
      <trkpt lat="58.998031" lon="16.00024">
        <ele>78.4545</ele>
        <time>1970-01-01T01:00:00Z</time>
      </trkpt>
      <trkpt lat="58.997937" lon="16.000193">
        <ele>78.9091</ele>
        <time>1970-01-01T01:00:00Z</time>
      </trkpt>
      <trkpt lat="58.997852" lon="16.000119">
        <ele>79.2727</ele>
        <time>1970-01-01T01:00:00Z</time>
      </trkpt>
      <trkpt lat="58.997784" lon="16.000025">
        <ele>79.5455</ele>
        <time>1970-01-01T01:00:00Z</time>
      </trkpt>
      <trkpt lat="58.997715" lon="15.999927">
        <ele>79.8182</ele>
        <time>1970-01-01T01:00:00Z</time>
      </trkpt>
      <trkpt lat="58.997673" lon="15.999774">
        <ele>80</ele>
        <time>1970-01-01T01:00:00Z</time>
      </trkpt>
      <trkpt lat="58.997614" lon="15.999655">
        <ele>80.0909</ele>
        <time>1970-01-01T01:00:00Z</time>
      </trkpt>
      <trkpt lat="58.99756" lon="15.999537">
        <ele>80.0909</ele>
        <time>1970-01-01T01:00:00Z</time>
      </trkpt>
      <trkpt lat="58.997499" lon="15.999412">
        <ele>80</ele>
        <time>1970-01-01T01:00:00Z</time>
      </trkpt>
      <trkpt lat="58.997441" lon="15.99929">
        <ele>79.8182</ele>
        <time>1970-01-01T01:00:00Z</time>
      </trkpt>
      <trkpt lat="58.997374" lon="15.999171">
        <ele>79.5455</ele>
        <time>1970-01-01T01:00:00Z</time>
      </trkpt>
      <trkpt lat="58.997301" lon="15.999079">
        <ele>79</ele>
        <time>1970-01-01T01:00:00Z</time>
      </trkpt>
      <trkpt lat="58.99723" lon="15.998989">
        <ele>78.3636</ele>
        <time>1970-01-01T01:00:00Z</time>
      </trkpt>
      <trkpt lat="58.99716" lon="15.998894">
        <ele>77.8182</ele>
        <time>1970-01-01T01:00:00Z</time>
      </trkpt>
      <trkpt lat="58.997099" lon="15.998758">
        <ele>77.1818</ele>
        <time>1970-01-01T01:00:00Z</time>
      </trkpt>
      <trkpt lat="58.997045" lon="15.998599">
        <ele>76.5455</ele>
        <time>1970-01-01T01:00:00Z</time>
      </trkpt>
      <trkpt lat="58.996978" lon="15.998478">
        <ele>75.9091</ele>
        <time>1970-01-01T01:00:00Z</time>
      </trkpt>
      <trkpt lat="58.996919" lon="15.998343">
        <ele>75.2727</ele>
        <time>1970-01-01T01:00:00Z</time>
      </trkpt>
      <trkpt lat="58.996857" lon="15.998229">
        <ele>74.7273</ele>
        <time>1970-01-01T01:00:00Z</time>
      </trkpt>
      <trkpt lat="58.996783" lon="15.99812">
        <ele>74.0909</ele>
        <time>1970-01-01T01:00:00Z</time>
      </trkpt>
      <trkpt lat="58.996704" lon="15.998035">
        <ele>73.5455</ele>
        <time>1970-01-01T01:00:00Z</time>
      </trkpt>
      <trkpt lat="58.996627" lon="15.997916">
        <ele>73.0909</ele>
        <time>1970-01-01T01:00:00Z</time>
      </trkpt>
      <trkpt lat="58.996549" lon="15.997823">
        <ele>72.8182</ele>
        <time>1970-01-01T01:00:00Z</time>
      </trkpt>
      <trkpt lat="58.996488" lon="15.997684">
        <ele>72.7273</ele>
        <time>1970-01-01T01:00:00Z</time>
      </trkpt>
      <trkpt lat="58.996425" lon="15.99756">
        <ele>72.6364</ele>
        <time>1970-01-01T01:00:00Z</time>
      </trkpt>
      <trkpt lat="58.996362" lon="15.997433">
        <ele>72.7273</ele>
        <time>1970-01-01T01:00:00Z</time>
      </trkpt>
      <trkpt lat="58.996306" lon="15.997315">
        <ele>72.8182</ele>
        <time>1970-01-01T01:00:00Z</time>
      </trkpt>
      <trkpt lat="58.996236" lon="15.997187">
        <ele>73</ele>
        <time>1970-01-01T01:00:00Z</time>
      </trkpt>
      <trkpt lat="58.996157" lon="15.997069">
        <ele>73.2727</ele>
        <time>1970-01-01T01:00:00Z</time>
      </trkpt>
      <trkpt lat="58.996071" lon="15.996974">
        <ele>73.5455</ele>
        <time>1970-01-01T01:00:00Z</time>
      </trkpt>
      <trkpt lat="58.995989" lon="15.996892">
        <ele>74</ele>
        <time>1970-01-01T01:00:00Z</time>
      </trkpt>
      <trkpt lat="58.995903" lon="15.996846">
        <ele>74.4545</ele>
        <time>1970-01-01T01:00:00Z</time>
      </trkpt>
      <trkpt lat="58.995822" lon="15.996806">
        <ele>74.9091</ele>
        <time>1970-01-01T01:00:00Z</time>
      </trkpt>
      <trkpt lat="58.995751" lon="15.996725">
        <ele>75.3636</ele>
        <time>1970-01-01T01:00:00Z</time>
      </trkpt>
      <trkpt lat="58.995669" lon="15.996662">
        <ele>75.7273</ele>
        <time>1970-01-01T01:00:00Z</time>
      </trkpt>
      <trkpt lat="58.995582" lon="15.996606">
        <ele>76.0909</ele>
        <time>1970-01-01T01:00:00Z</time>
      </trkpt>
      <trkpt lat="58.995518" lon="15.996507">
        <ele>76.2727</ele>
        <time>1970-01-01T01:00:00Z</time>
      </trkpt>
      <trkpt lat="58.995456" lon="15.996385">
        <ele>76.5455</ele>
        <time>1970-01-01T01:00:00Z</time>
      </trkpt>
      <trkpt lat="58.995382" lon="15.996313">
        <ele>76.7273</ele>
        <time>1970-01-01T01:00:00Z</time>
      </trkpt>
      <trkpt lat="58.995333" lon="15.996154">
        <ele>76.8182</ele>
        <time>1970-01-01T01:00:00Z</time>
      </trkpt>
      <trkpt lat="58.995302" lon="15.996007">
        <ele>77</ele>
        <time>1970-01-01T01:00:00Z</time>
      </trkpt>
      <trkpt lat="58.995254" lon="15.995861">
        <ele>77.0909</ele>
        <time>1970-01-01T01:00:00Z</time>
      </trkpt>
      <trkpt lat="58.995206" lon="15.995703">
        <ele>77.1818</ele>
        <time>1970-01-01T01:00:00Z</time>
      </trkpt>
      <trkpt lat="58.995163" lon="15.995562">
        <ele>77.3636</ele>
        <time>1970-01-01T01:00:00Z</time>
      </trkpt>
      <trkpt lat="58.995106" lon="15.995401">
        <ele>77.5455</ele>
        <time>1970-01-01T01:00:00Z</time>
      </trkpt>
      <trkpt lat="58.995057" lon="15.995262">
        <ele>77.7273</ele>
        <time>1970-01-01T01:00:00Z</time>
      </trkpt>
      <trkpt lat="58.994985" lon="15.99514">
        <ele>77.9091</ele>
        <time>1970-01-01T01:00:00Z</time>
      </trkpt>
      <trkpt lat="58.994911" lon="15.995037">
        <ele>78.1818</ele>
        <time>1970-01-01T01:00:00Z</time>
      </trkpt>
      <trkpt lat="58.994842" lon="15.994941">
        <ele>78.3636</ele>
        <time>1970-01-01T01:00:00Z</time>
      </trkpt>
      <trkpt lat="58.994762" lon="15.99487">
        <ele>78.4545</ele>
        <time>1970-01-01T01:00:00Z</time>
      </trkpt>
      <trkpt lat="58.994672" lon="15.994811">
        <ele>78.4545</ele>
        <time>1970-01-01T01:00:00Z</time>
      </trkpt>
      <trkpt lat="58.994587" lon="15.994768">
        <ele>78.2727</ele>
        <time>1970-01-01T01:00:00Z</time>
      </trkpt>
      <trkpt lat="58.994495" lon="15.994775">
        <ele>78.0909</ele>
        <time>1970-01-01T01:00:00Z</time>
      </trkpt>
      <trkpt lat="58.994401" lon="15.994767">
        <ele>77.8182</ele>
        <time>1970-01-01T01:00:00Z</time>
      </trkpt>
      <trkpt lat="58.994307" lon="15.994779">
        <ele>77.4545</ele>
        <time>1970-01-01T01:00:00Z</time>
      </trkpt>
      <trkpt lat="58.994217" lon="15.994802">
        <ele>77.0909</ele>
        <time>1970-01-01T01:00:00Z</time>
      </trkpt>
      <trkpt lat="58.994135" lon="15.994805">
        <ele>76.6364</ele>
        <time>1970-01-01T01:00:00Z</time>
      </trkpt>
      <trkpt lat="58.994048" lon="15.994797">
        <ele>76.0909</ele>
        <time>1970-01-01T01:00:00Z</time>
      </trkpt>
      <trkpt lat="58.993961" lon="15.994768">
        <ele>75.4545</ele>
        <time>1970-01-01T01:00:00Z</time>
      </trkpt>
      <trkpt lat="58.993898" lon="15.994664">
        <ele>74.8182</ele>
        <time>1970-01-01T01:00:00Z</time>
      </trkpt>
      <trkpt lat="58.993838" lon="15.994525">
        <ele>74.1818</ele>
        <time>1970-01-01T01:00:00Z</time>
      </trkpt>
      <trkpt lat="58.99376" lon="15.994443">
        <ele>73.5455</ele>
        <time>1970-01-01T01:00:00Z</time>
      </trkpt>
      <trkpt lat="58.993684" lon="15.994363">
        <ele>72.9091</ele>
        <time>1970-01-01T01:00:00Z</time>
      </trkpt>
      <trkpt lat="58.993604" lon="15.994293">
        <ele>72.2727</ele>
        <time>1970-01-01T01:00:00Z</time>
      </trkpt>
      <trkpt lat="58.993525" lon="15.994236">
        <ele>71.6364</ele>
        <time>1970-01-01T01:00:00Z</time>
      </trkpt>
      <trkpt lat="58.993436" lon="15.994185">
        <ele>71</ele>
        <time>1970-01-01T01:00:00Z</time>
      </trkpt>
      <trkpt lat="58.993343" lon="15.994146">
        <ele>70.2727</ele>
        <time>1970-01-01T01:00:00Z</time>
      </trkpt>
      <trkpt lat="58.993256" lon="15.994216">
        <ele>69.6364</ele>
        <time>1970-01-01T01:00:00Z</time>
      </trkpt>
      <trkpt lat="58.993164" lon="15.994296">
        <ele>69.0909</ele>
        <time>1970-01-01T01:00:00Z</time>
      </trkpt>
      <trkpt lat="58.993083" lon="15.994342">
        <ele>68.6364</ele>
        <time>1970-01-01T01:00:00Z</time>
      </trkpt>
      <trkpt lat="58.993" lon="15.994379">
        <ele>68.2727</ele>
        <time>1970-01-01T01:00:00Z</time>
      </trkpt>
      <trkpt lat="58.992904" lon="15.994439">
        <ele>68</ele>
        <time>1970-01-01T01:00:00Z</time>
      </trkpt>
      <trkpt lat="58.992822" lon="15.994472">
        <ele>67.9091</ele>
        <time>1970-01-01T01:00:00Z</time>
      </trkpt>
      <trkpt lat="58.99274" lon="15.994506">
        <ele>68</ele>
        <time>1970-01-01T01:00:00Z</time>
      </trkpt>
      <trkpt lat="58.992644" lon="15.994543">
        <ele>68.0909</ele>
        <time>1970-01-01T01:00:00Z</time>
      </trkpt>
      <trkpt lat="58.992556" lon="15.994576">
        <ele>68.2727</ele>
        <time>1970-01-01T01:00:00Z</time>
      </trkpt>
      <trkpt lat="58.992468" lon="15.994607">
        <ele>68.5455</ele>
        <time>1970-01-01T01:00:00Z</time>
      </trkpt>
      <trkpt lat="58.992378" lon="15.994636">
        <ele>68.9091</ele>
        <time>1970-01-01T01:00:00Z</time>
      </trkpt>
      <trkpt lat="58.992289" lon="15.994595">
        <ele>69.2727</ele>
        <time>1970-01-01T01:00:00Z</time>
      </trkpt>
      <trkpt lat="58.99221" lon="15.994539">
        <ele>69.6364</ele>
        <time>1970-01-01T01:00:00Z</time>
      </trkpt>
      <trkpt lat="58.992126" lon="15.994465">
        <ele>70.0909</ele>
        <time>1970-01-01T01:00:00Z</time>
      </trkpt>
      <trkpt lat="58.992041" lon="15.994407">
        <ele>70.4545</ele>
        <time>1970-01-01T01:00:00Z</time>
      </trkpt>
      <trkpt lat="58.991953" lon="15.994345">
        <ele>70.8182</ele>
        <time>1970-01-01T01:00:00Z</time>
      </trkpt>
      <trkpt lat="58.991867" lon="15.994292">
        <ele>71.0909</ele>
        <time>1970-01-01T01:00:00Z</time>
      </trkpt>
      <trkpt lat="58.991778" lon="15.994295">
        <ele>71.2727</ele>
        <time>1970-01-01T01:00:00Z</time>
      </trkpt>
      <trkpt lat="58.991687" lon="15.994345">
        <ele>71.4545</ele>
        <time>1970-01-01T01:00:00Z</time>
      </trkpt>
      <trkpt lat="58.99161" lon="15.994462">
        <ele>71.6364</ele>
        <time>1970-01-01T01:00:00Z</time>
      </trkpt>
      <trkpt lat="58.991556" lon="15.9946">
        <ele>71.7273</ele>
        <time>1970-01-01T01:00:00Z</time>
      </trkpt>
      <trkpt lat="58.991513" lon="15.994754">
        <ele>71.9091</ele>
        <time>1970-01-01T01:00:00Z</time>
      </trkpt>
      <trkpt lat="58.991494" lon="15.994922">
        <ele>72.0909</ele>
        <time>1970-01-01T01:00:00Z</time>
      </trkpt>
      <trkpt lat="58.991499" lon="15.995085">
        <ele>72.2727</ele>
        <time>1970-01-01T01:00:00Z</time>
      </trkpt>
      <trkpt lat="58.991508" lon="15.995257">
        <ele>72.2727</ele>
        <time>1970-01-01T01:00:00Z</time>
      </trkpt>
      <trkpt lat="58.991502" lon="15.995439">
        <ele>72.2727</ele>
        <time>1970-01-01T01:00:00Z</time>
      </trkpt>
      <trkpt lat="58.991504" lon="15.995611">
        <ele>72.2727</ele>
        <time>1970-01-01T01:00:00Z</time>
      </trkpt>
      <trkpt lat="58.991502" lon="15.995792">
        <ele>72.3636</ele>
        <time>1970-01-01T01:00:00Z</time>
      </trkpt>
      <trkpt lat="58.991489" lon="15.995971">
        <ele>72.5455</ele>
        <time>1970-01-01T01:00:00Z</time>
      </trkpt>
      <trkpt lat="58.991455" lon="15.996129">
        <ele>72.7273</ele>
        <time>1970-01-01T01:00:00Z</time>
      </trkpt>
      <trkpt lat="58.991438" lon="15.9963">
        <ele>73</ele>
        <time>1970-01-01T01:00:00Z</time>
      </trkpt>
      <trkpt lat="58.991477" lon="15.996445">
        <ele>73.4545</ele>
        <time>1970-01-01T01:00:00Z</time>
      </trkpt>
      <trkpt lat="58.991525" lon="15.996581">
        <ele>73.9091</ele>
        <time>1970-01-01T01:00:00Z</time>
      </trkpt>
      <trkpt lat="58.991586" lon="15.996696">
        <ele>74.4545</ele>
        <time>1970-01-01T01:00:00Z</time>
      </trkpt>
      <trkpt lat="58.991639" lon="15.996838">
        <ele>75.1818</ele>
        <time>1970-01-01T01:00:00Z</time>
      </trkpt>
      <trkpt lat="58.991689" lon="15.996978">
        <ele>76.0909</ele>
        <time>1970-01-01T01:00:00Z</time>
      </trkpt>
      <trkpt lat="58.991734" lon="15.997117">
        <ele>77.0909</ele>
        <time>1970-01-01T01:00:00Z</time>
      </trkpt>
      <trkpt lat="58.99178" lon="15.997262">
        <ele>78.1818</ele>
        <time>1970-01-01T01:00:00Z</time>
      </trkpt>
      <trkpt lat="58.991825" lon="15.997402">
        <ele>79.1818</ele>
        <time>1970-01-01T01:00:00Z</time>
      </trkpt>
      <trkpt lat="58.991882" lon="15.997529">
        <ele>80.1818</ele>
        <time>1970-01-01T01:00:00Z</time>
      </trkpt>
      <trkpt lat="58.991926" lon="15.997667">
        <ele>81.2727</ele>
        <time>1970-01-01T01:00:00Z</time>
      </trkpt>
      <trkpt lat="58.991967" lon="15.997809">
        <ele>82.2727</ele>
        <time>1970-01-01T01:00:00Z</time>
      </trkpt>
      <trkpt lat="58.991988" lon="15.997974">
        <ele>83.0909</ele>
        <time>1970-01-01T01:00:00Z</time>
      </trkpt>
      <trkpt lat="58.99204" lon="15.998103">
        <ele>83.8182</ele>
        <time>1970-01-01T01:00:00Z</time>
      </trkpt>
      <trkpt lat="58.992064" lon="15.998279">
        <ele>84.4545</ele>
        <time>1970-01-01T01:00:00Z</time>
      </trkpt>
      <trkpt lat="58.992078" lon="15.998447">
        <ele>84.8182</ele>
        <time>1970-01-01T01:00:00Z</time>
      </trkpt>
      <trkpt lat="58.992093" lon="15.998634">
        <ele>85.0909</ele>
        <time>1970-01-01T01:00:00Z</time>
      </trkpt>
      <trkpt lat="58.992139" lon="15.998794">
        <ele>85.2727</ele>
        <time>1970-01-01T01:00:00Z</time>
      </trkpt>
      <trkpt lat="58.992112" lon="15.998958">
        <ele>85.2727</ele>
        <time>1970-01-01T01:00:00Z</time>
      </trkpt>
      <trkpt lat="58.992115" lon="15.999126">
        <ele>85.2727</ele>
        <time>1970-01-01T01:00:00Z</time>
      </trkpt>
      <trkpt lat="58.992161" lon="15.999282">
        <ele>85.0909</ele>
        <time>1970-01-01T01:00:00Z</time>
      </trkpt>
      <trkpt lat="58.99215" lon="15.999455">
        <ele>84.8182</ele>
        <time>1970-01-01T01:00:00Z</time>
      </trkpt>
      <trkpt lat="58.992117" lon="15.999608">
        <ele>84.5455</ele>
        <time>1970-01-01T01:00:00Z</time>
      </trkpt>
      <trkpt lat="58.992117" lon="15.999775">
        <ele>84.1818</ele>
        <time>1970-01-01T01:00:00Z</time>
      </trkpt>
      <trkpt lat="58.992076" lon="15.999921">
        <ele>83.9091</ele>
        <time>1970-01-01T01:00:00Z</time>
      </trkpt>
      <trkpt lat="58.992051" lon="16.000085">
        <ele>83.6364</ele>
        <time>1970-01-01T01:00:00Z</time>
      </trkpt>
      <trkpt lat="58.992011" lon="16.000257">
        <ele>83.4545</ele>
        <time>1970-01-01T01:00:00Z</time>
      </trkpt>
      <trkpt lat="58.99199" lon="16.000446">
        <ele>83.2727</ele>
        <time>1970-01-01T01:00:00Z</time>
      </trkpt>
      <trkpt lat="58.991998" lon="16.00062">
        <ele>83</ele>
        <time>1970-01-01T01:00:00Z</time>
      </trkpt>
      <trkpt lat="58.992067" lon="16.000754">
        <ele>82.8182</ele>
        <time>1970-01-01T01:00:00Z</time>
      </trkpt>
      <trkpt lat="58.992104" lon="16.000923">
        <ele>82.5455</ele>
        <time>1970-01-01T01:00:00Z</time>
      </trkpt>
      <trkpt lat="58.992154" lon="16.001075">
        <ele>82.2727</ele>
        <time>1970-01-01T01:00:00Z</time>
      </trkpt>
      <trkpt lat="58.992217" lon="16.001199">
        <ele>81.9091</ele>
        <time>1970-01-01T01:00:00Z</time>
      </trkpt>
      <trkpt lat="58.992284" lon="16.001325">
        <ele>81.4545</ele>
        <time>1970-01-01T01:00:00Z</time>
      </trkpt>
      <trkpt lat="58.992365" lon="16.001414">
        <ele>81.0909</ele>
        <time>1970-01-01T01:00:00Z</time>
      </trkpt>
      <trkpt lat="58.99246" lon="16.00151">
        <ele>80.6364</ele>
        <time>1970-01-01T01:00:00Z</time>
      </trkpt>
      <trkpt lat="58.992548" lon="16.001587">
        <ele>80.0909</ele>
        <time>1970-01-01T01:00:00Z</time>
      </trkpt>
      <trkpt lat="58.992625" lon="16.00171">
        <ele>79.5455</ele>
        <time>1970-01-01T01:00:00Z</time>
      </trkpt>
      <trkpt lat="58.992695" lon="16.001827">
        <ele>78.9091</ele>
        <time>1970-01-01T01:00:00Z</time>
      </trkpt>
      <trkpt lat="58.992789" lon="16.001882">
        <ele>78.2727</ele>
        <time>1970-01-01T01:00:00Z</time>
      </trkpt>
      <trkpt lat="58.992862" lon="16.001977">
        <ele>77.6364</ele>
        <time>1970-01-01T01:00:00Z</time>
      </trkpt>
      <trkpt lat="58.992942" lon="16.002062">
        <ele>77</ele>
        <time>1970-01-01T01:00:00Z</time>
      </trkpt>
      <trkpt lat="58.993029" lon="16.002145">
        <ele>76.5455</ele>
        <time>1970-01-01T01:00:00Z</time>
      </trkpt>
      <trkpt lat="58.993085" lon="16.002283">
        <ele>76.1818</ele>
        <time>1970-01-01T01:00:00Z</time>
      </trkpt>
      <trkpt lat="58.993077" lon="16.002454">
        <ele>75.9091</ele>
        <time>1970-01-01T01:00:00Z</time>
      </trkpt>
      <trkpt lat="58.993039" lon="16.002607">
        <ele>75.7273</ele>
        <time>1970-01-01T01:00:00Z</time>
      </trkpt>
      <trkpt lat="58.993009" lon="16.002785">
        <ele>75.6364</ele>
        <time>1970-01-01T01:00:00Z</time>
      </trkpt>
      <trkpt lat="58.993033" lon="16.002969">
        <ele>75.7273</ele>
        <time>1970-01-01T01:00:00Z</time>
      </trkpt>
      <trkpt lat="58.993069" lon="16.003115">
        <ele>75.9091</ele>
        <time>1970-01-01T01:00:00Z</time>
      </trkpt>
      <trkpt lat="58.993086" lon="16.00328">
        <ele>76.1818</ele>
        <time>1970-01-01T01:00:00Z</time>
      </trkpt>
      <trkpt lat="58.99308" lon="16.003438">
        <ele>76.5455</ele>
        <time>1970-01-01T01:00:00Z</time>
      </trkpt>
      <trkpt lat="58.993108" lon="16.003587">
        <ele>77</ele>
        <time>1970-01-01T01:00:00Z</time>
      </trkpt>
      <trkpt lat="58.993148" lon="16.003749">
        <ele>77.5455</ele>
        <time>1970-01-01T01:00:00Z</time>
      </trkpt>
      <trkpt lat="58.993177" lon="16.003921">
        <ele>78</ele>
        <time>1970-01-01T01:00:00Z</time>
      </trkpt>
      <trkpt lat="58.993211" lon="16.004073">
        <ele>78.4545</ele>
        <time>1970-01-01T01:00:00Z</time>
      </trkpt>
      <trkpt lat="58.993235" lon="16.004239">
        <ele>78.9091</ele>
        <time>1970-01-01T01:00:00Z</time>
      </trkpt>
      <trkpt lat="58.993269" lon="16.004386">
        <ele>79.2727</ele>
        <time>1970-01-01T01:00:00Z</time>
      </trkpt>
      <trkpt lat="58.993319" lon="16.004547">
        <ele>79.5455</ele>
        <time>1970-01-01T01:00:00Z</time>
      </trkpt>
      <trkpt lat="58.993358" lon="16.004721">
        <ele>79.6364</ele>
        <time>1970-01-01T01:00:00Z</time>
      </trkpt>
      <trkpt lat="58.993382" lon="16.004902">
        <ele>79.6364</ele>
        <time>1970-01-01T01:00:00Z</time>
      </trkpt>
      <trkpt lat="58.993418" lon="16.005046">
        <ele>79.7273</ele>
        <time>1970-01-01T01:00:00Z</time>
      </trkpt>
      <trkpt lat="58.993469" lon="16.0052">
        <ele>79.9091</ele>
        <time>1970-01-01T01:00:00Z</time>
      </trkpt>
      <trkpt lat="58.993507" lon="16.005364">
        <ele>80</ele>
        <time>1970-01-01T01:00:00Z</time>
      </trkpt>
      <trkpt lat="58.993551" lon="16.005498">
        <ele>80.0909</ele>
        <time>1970-01-01T01:00:00Z</time>
      </trkpt>
      <trkpt lat="58.993584" lon="16.005672">
        <ele>80.1818</ele>
        <time>1970-01-01T01:00:00Z</time>
      </trkpt>
      <trkpt lat="58.993567" lon="16.005851">
        <ele>80.1818</ele>
        <time>1970-01-01T01:00:00Z</time>
      </trkpt>
      <trkpt lat="58.993569" lon="16.006035">
        <ele>80.0909</ele>
        <time>1970-01-01T01:00:00Z</time>
      </trkpt>
      <trkpt lat="58.993562" lon="16.006223">
        <ele>79.9091</ele>
        <time>1970-01-01T01:00:00Z</time>
      </trkpt>
      <trkpt lat="58.993581" lon="16.00641">
        <ele>79.6364</ele>
        <time>1970-01-01T01:00:00Z</time>
      </trkpt>
      <trkpt lat="58.993609" lon="16.006592">
        <ele>79.4545</ele>
        <time>1970-01-01T01:00:00Z</time>
      </trkpt>
      <trkpt lat="58.993652" lon="16.006736">
        <ele>79.0909</ele>
        <time>1970-01-01T01:00:00Z</time>
      </trkpt>
      <trkpt lat="58.993708" lon="16.006867">
        <ele>78.5455</ele>
        <time>1970-01-01T01:00:00Z</time>
      </trkpt>
      <trkpt lat="58.993773" lon="16.006971">
        <ele>77.9091</ele>
        <time>1970-01-01T01:00:00Z</time>
      </trkpt>
      <trkpt lat="58.993833" lon="16.007105">
        <ele>77.0909</ele>
        <time>1970-01-01T01:00:00Z</time>
      </trkpt>
      <trkpt lat="58.993889" lon="16.007229">
        <ele>76.2727</ele>
        <time>1970-01-01T01:00:00Z</time>
      </trkpt>
      <trkpt lat="58.993975" lon="16.007347">
        <ele>75.3636</ele>
        <time>1970-01-01T01:00:00Z</time>
      </trkpt>
      <trkpt lat="58.994034" lon="16.007456">
        <ele>74.5455</ele>
        <time>1970-01-01T01:00:00Z</time>
      </trkpt>
      <trkpt lat="58.99408" lon="16.007598">
        <ele>73.7273</ele>
        <time>1970-01-01T01:00:00Z</time>
      </trkpt>
      <trkpt lat="58.994149" lon="16.0077">
        <ele>73</ele>
        <time>1970-01-01T01:00:00Z</time>
      </trkpt>
      <trkpt lat="58.994228" lon="16.007794">
        <ele>72.3636</ele>
        <time>1970-01-01T01:00:00Z</time>
      </trkpt>
      <trkpt lat="58.994317" lon="16.007823">
        <ele>71.7273</ele>
        <time>1970-01-01T01:00:00Z</time>
      </trkpt>
      <trkpt lat="58.994401" lon="16.007839">
        <ele>71.3636</ele>
        <time>1970-01-01T01:00:00Z</time>
      </trkpt>
      <trkpt lat="58.994489" lon="16.007843">
        <ele>71.0909</ele>
        <time>1970-01-01T01:00:00Z</time>
      </trkpt>
      <trkpt lat="58.994587" lon="16.007858">
        <ele>70.9091</ele>
        <time>1970-01-01T01:00:00Z</time>
      </trkpt>
      <trkpt lat="58.994672" lon="16.007856">
        <ele>71</ele>
        <time>1970-01-01T01:00:00Z</time>
      </trkpt>
      <trkpt lat="58.99476" lon="16.007864">
        <ele>71.0909</ele>
        <time>1970-01-01T01:00:00Z</time>
      </trkpt>
      <trkpt lat="58.99486" lon="16.007901">
        <ele>71.2727</ele>
        <time>1970-01-01T01:00:00Z</time>
      </trkpt>
      <trkpt lat="58.99494" lon="16.007963">
        <ele>71.5455</ele>
        <time>1970-01-01T01:00:00Z</time>
      </trkpt>
      <trkpt lat="58.99502" lon="16.008048">
        <ele>71.9091</ele>
        <time>1970-01-01T01:00:00Z</time>
      </trkpt>
      <trkpt lat="58.995089" lon="16.008161">
        <ele>72.2727</ele>
        <time>1970-01-01T01:00:00Z</time>
      </trkpt>
      <trkpt lat="58.995156" lon="16.008267">
        <ele>72.6364</ele>
        <time>1970-01-01T01:00:00Z</time>
      </trkpt>
      <trkpt lat="58.995227" lon="16.00837">
        <ele>73</ele>
        <time>1970-01-01T01:00:00Z</time>
      </trkpt>
      <trkpt lat="58.995288" lon="16.008485">
        <ele>73.2727</ele>
        <time>1970-01-01T01:00:00Z</time>
      </trkpt>
      <trkpt lat="58.995336" lon="16.008637">
        <ele>73.5455</ele>
        <time>1970-01-01T01:00:00Z</time>
      </trkpt>
      <trkpt lat="58.995394" lon="16.008748">
        <ele>73.6364</ele>
        <time>1970-01-01T01:00:00Z</time>
      </trkpt>
      <trkpt lat="58.995469" lon="16.00886">
        <ele>73.6364</ele>
        <time>1970-01-01T01:00:00Z</time>
      </trkpt>
      <trkpt lat="58.995545" lon="16.008924">
        <ele>73.5455</ele>
        <time>1970-01-01T01:00:00Z</time>
      </trkpt>
      <trkpt lat="58.995628" lon="16.009007">
        <ele>73.4545</ele>
        <time>1970-01-01T01:00:00Z</time>
      </trkpt>
      <trkpt lat="58.995702" lon="16.009072">
        <ele>73.1818</ele>
        <time>1970-01-01T01:00:00Z</time>
      </trkpt>
      <trkpt lat="58.995792" lon="16.009143">
        <ele>72.8182</ele>
        <time>1970-01-01T01:00:00Z</time>
      </trkpt>
      <trkpt lat="58.995872" lon="16.009249">
        <ele>72.4545</ele>
        <time>1970-01-01T01:00:00Z</time>
      </trkpt>
      <trkpt lat="58.995952" lon="16.009301">
        <ele>72.0909</ele>
        <time>1970-01-01T01:00:00Z</time>
      </trkpt>
      <trkpt lat="58.996035" lon="16.009367">
        <ele>71.7273</ele>
        <time>1970-01-01T01:00:00Z</time>
      </trkpt>
      <trkpt lat="58.996108" lon="16.009491">
        <ele>71.3636</ele>
        <time>1970-01-01T01:00:00Z</time>
      </trkpt>
      <trkpt lat="58.996174" lon="16.009613">
        <ele>71</ele>
        <time>1970-01-01T01:00:00Z</time>
      </trkpt>
      <trkpt lat="58.996236" lon="16.009738">
        <ele>70.7273</ele>
        <time>1970-01-01T01:00:00Z</time>
      </trkpt>
      <trkpt lat="58.996212" lon="16.009899">
        <ele>70.3636</ele>
        <time>1970-01-01T01:00:00Z</time>
      </trkpt>
      <trkpt lat="58.99623" lon="16.010061">
        <ele>70</ele>
        <time>1970-01-01T01:00:00Z</time>
      </trkpt>
      <trkpt lat="58.996285" lon="16.010216">
        <ele>69.6364</ele>
        <time>1970-01-01T01:00:00Z</time>
      </trkpt>
      <trkpt lat="58.996342" lon="16.010333">
        <ele>69.2727</ele>
        <time>1970-01-01T01:00:00Z</time>
      </trkpt>
      <trkpt lat="58.996368" lon="16.010484">
        <ele>69</ele>
        <time>1970-01-01T01:00:00Z</time>
      </trkpt>
      <trkpt lat="58.996441" lon="16.01056">
        <ele>68.6364</ele>
        <time>1970-01-01T01:00:00Z</time>
      </trkpt>
      <trkpt lat="58.996515" lon="16.010466">
        <ele>68.2727</ele>
        <time>1970-01-01T01:00:00Z</time>
      </trkpt>
      <trkpt lat="58.996584" lon="16.010382">
        <ele>67.9091</ele>
        <time>1970-01-01T01:00:00Z</time>
      </trkpt>
      <trkpt lat="58.996661" lon="16.010302">
        <ele>67.5455</ele>
        <time>1970-01-01T01:00:00Z</time>
      </trkpt>
      <trkpt lat="58.996742" lon="16.010232">
        <ele>67.1818</ele>
        <time>1970-01-01T01:00:00Z</time>
      </trkpt>
      <trkpt lat="58.996822" lon="16.010181">
        <ele>66.8182</ele>
        <time>1970-01-01T01:00:00Z</time>
      </trkpt>
      <trkpt lat="58.996902" lon="16.010106">
        <ele>66.5455</ele>
        <time>1970-01-01T01:00:00Z</time>
      </trkpt>
      <trkpt lat="58.99699" lon="16.010051">
        <ele>66.3636</ele>
        <time>1970-01-01T01:00:00Z</time>
      </trkpt>
      <trkpt lat="58.997082" lon="16.009967">
        <ele>66.1818</ele>
        <time>1970-01-01T01:00:00Z</time>
      </trkpt>
      <trkpt lat="58.997164" lon="16.00989">
        <ele>66.0909</ele>
        <time>1970-01-01T01:00:00Z</time>
      </trkpt>
      <trkpt lat="58.997237" lon="16.009795">
        <ele>66</ele>
        <time>1970-01-01T01:00:00Z</time>
      </trkpt>
      <trkpt lat="58.997305" lon="16.009681">
        <ele>66.0909</ele>
        <time>1970-01-01T01:00:00Z</time>
      </trkpt>
      <trkpt lat="58.997361" lon="16.009564">
        <ele>66.1818</ele>
        <time>1970-01-01T01:00:00Z</time>
      </trkpt>
      <trkpt lat="58.997437" lon="16.009451">
        <ele>66.2727</ele>
        <time>1970-01-01T01:00:00Z</time>
      </trkpt>
      <trkpt lat="58.997516" lon="16.009397">
        <ele>66.4545</ele>
        <time>1970-01-01T01:00:00Z</time>
      </trkpt>
      <trkpt lat="58.997588" lon="16.009315">
        <ele>66.6364</ele>
        <time>1970-01-01T01:00:00Z</time>
      </trkpt>
      <trkpt lat="58.997666" lon="16.009274">
        <ele>66.8182</ele>
        <time>1970-01-01T01:00:00Z</time>
      </trkpt>
      <trkpt lat="58.997752" lon="16.009243">
        <ele>67.0909</ele>
        <time>1970-01-01T01:00:00Z</time>
      </trkpt>
      <trkpt lat="58.997837" lon="16.009223">
        <ele>67.3636</ele>
        <time>1970-01-01T01:00:00Z</time>
      </trkpt>
      <trkpt lat="58.997923" lon="16.009188">
        <ele>67.7273</ele>
        <time>1970-01-01T01:00:00Z</time>
      </trkpt>
      <trkpt lat="58.997998" lon="16.009081">
        <ele>68.0909</ele>
        <time>1970-01-01T01:00:00Z</time>
      </trkpt>
      <trkpt lat="58.998082" lon="16.00902">
        <ele>68.4545</ele>
        <time>1970-01-01T01:00:00Z</time>
      </trkpt>
      <trkpt lat="58.998173" lon="16.008953">
        <ele>68.7273</ele>
        <time>1970-01-01T01:00:00Z</time>
      </trkpt>
      <trkpt lat="58.998254" lon="16.008853">
        <ele>69.0909</ele>
        <time>1970-01-01T01:00:00Z</time>
      </trkpt>
      <trkpt lat="58.998333" lon="16.008752">
        <ele>69.5455</ele>
        <time>1970-01-01T01:00:00Z</time>
      </trkpt>
      <trkpt lat="58.998401" lon="16.008653">
        <ele>69.9091</ele>
        <time>1970-01-01T01:00:00Z</time>
      </trkpt>
      <trkpt lat="58.998459" lon="16.008535">
        <ele>70.3636</ele>
        <time>1970-01-01T01:00:00Z</time>
      </trkpt>
      <trkpt lat="58.998522" lon="16.008401">
        <ele>70.8182</ele>
        <time>1970-01-01T01:00:00Z</time>
      </trkpt>
      <trkpt lat="58.998588" lon="16.008272">
        <ele>71.1818</ele>
        <time>1970-01-01T01:00:00Z</time>
      </trkpt>
      <trkpt lat="58.998651" lon="16.008174">
        <ele>71.4545</ele>
        <time>1970-01-01T01:00:00Z</time>
      </trkpt>
      <trkpt lat="58.998736" lon="16.008088">
        <ele>71.6364</ele>
        <time>1970-01-01T01:00:00Z</time>
      </trkpt>
      <trkpt lat="58.998814" lon="16.008014">
        <ele>71.8182</ele>
        <time>1970-01-01T01:00:00Z</time>
      </trkpt>
      <trkpt lat="58.998907" lon="16.007956">
        <ele>72</ele>
        <time>1970-01-01T01:00:00Z</time>
      </trkpt>
      <trkpt lat="58.99898" lon="16.007854">
        <ele>72.1818</ele>
        <time>1970-01-01T01:00:00Z</time>
      </trkpt>
      <trkpt lat="58.999049" lon="16.007742">
        <ele>72.2727</ele>
        <time>1970-01-01T01:00:00Z</time>
      </trkpt>
      <trkpt lat="58.999108" lon="16.00763">
        <ele>72.2727</ele>
        <time>1970-01-01T01:00:00Z</time>
      </trkpt>
      <trkpt lat="58.999142" lon="16.007478">
        <ele>72.1818</ele>
        <time>1970-01-01T01:00:00Z</time>
      </trkpt>
      <trkpt lat="58.999181" lon="16.007337">
        <ele>72</ele>
        <time>1970-01-01T01:00:00Z</time>
      </trkpt>
      <trkpt lat="58.99921" lon="16.007171">
        <ele>71.8182</ele>
        <time>1970-01-01T01:00:00Z</time>
      </trkpt>
      <trkpt lat="58.999244" lon="16.006994">
        <ele>71.5455</ele>
        <time>1970-01-01T01:00:00Z</time>
      </trkpt>
      <trkpt lat="58.999269" lon="16.006827">
        <ele>71.3636</ele>
        <time>1970-01-01T01:00:00Z</time>
      </trkpt>
      <trkpt lat="58.99931" lon="16.006652">
        <ele>71.0909</ele>
        <time>1970-01-01T01:00:00Z</time>
      </trkpt>
      <trkpt lat="58.99934" lon="16.006493">
        <ele>70.7273</ele>
        <time>1970-01-01T01:00:00Z</time>
      </trkpt>
      <trkpt lat="58.999376" lon="16.006346">
        <ele>70.2727</ele>
        <time>1970-01-01T01:00:00Z</time>
      </trkpt>
      <trkpt lat="58.999414" lon="16.006182">
        <ele>69.7273</ele>
        <time>1970-01-01T01:00:00Z</time>
      </trkpt>
      <trkpt lat="58.999439" lon="16.006029">
        <ele>69.0909</ele>
        <time>1970-01-01T01:00:00Z</time>
      </trkpt>
      <trkpt lat="58.999521" lon="16.005948">
        <ele>68.4545</ele>
        <time>1970-01-01T01:00:00Z</time>
      </trkpt>
      <trkpt lat="58.999598" lon="16.006025">
        <ele>67.8182</ele>
        <time>1970-01-01T01:00:00Z</time>
      </trkpt>
      <trkpt lat="58.999662" lon="16.006156">
        <ele>67.1818</ele>
        <time>1970-01-01T01:00:00Z</time>
      </trkpt>
      <trkpt lat="58.999739" lon="16.006251">
        <ele>66.8</ele>
        <time>1970-01-01T01:00:00Z</time>
      </trkpt>
      <trkpt lat="58.999804" lon="16.006365">
        <ele>66.4444</ele>
        <time>1970-01-01T01:00:00Z</time>
      </trkpt>
      <trkpt lat="58.999883" lon="16.006471">
        <ele>66</ele>
        <time>1970-01-01T01:00:00Z</time>
      </trkpt>
      <trkpt lat="58.999964" lon="16.006464">
        <ele>65.1667</ele>
        <time>1970-01-01T01:00:00Z</time>
      </trkpt>
    </trkseg>
  </trk>
</gpx>